Location: Chequamegon National Forest
(46.1070°N, 90.8420°W)
Time: 14:45:42
(UTC-05:00)

Amateur Radio Satellites - All Passes

Search period start: 21 August 2017 14:15
Search period end: 22 August 2017 14:15
Location: Chequamegon National Forest, 46.1070°N, 90.8420°W

Satellite Date Start Highest point End Downlink Frequencies (MHz)
Time Altitude Azimuth
BEESAT 2 21 Aug 14:18:46 14:22:44 50° 49° (NE) 14:26:40 435.950
YUBILEINY 21 Aug 14:21:08 14:24:45 13° 71° (ENE) 14:28:21 435.215
UKube-1 21 Aug 14:22:27 14:26:28 37° 98° (E) 14:30:27 .
RS-15 21 Aug 14:32:52 14:44:20 41° 333° (NNW) 14:55:43 29.354- 29.394
DX 1 21 Aug 14:45:07 14:49:30 85° 285° (WNW) 14:53:51 434.975-435.025
VELOX 1 21 Aug 14:45:58 14:49:42 27° 294° (WNW) 14:53:26 145.980
SPROUT 21 Aug 14:49:40 14:52:42 19° 296° (WNW) 14:55:45 437.525
AO-7 21 Aug 14:50:34 14:58:42 58° 63° (ENE) 15:06:51 .
ISS 21 Aug 14:57:40 15:00:47 39° 15° (NNE) 15:03:54 437.550
nSIGHT-1 21 Aug 15:05:16 15:08:24 43° 17° (NNE) 15:11:31 .
BEESAT 21 Aug 15:06:20 15:08:47 14° 89° (E) 15:11:13 436.000
Tancredo 1 21 Aug 15:14:31 15:17:25 69° 212° (SSW) 15:20:17 437.200
Gurwin Techsat 1B 21 Aug 15:17:07 15:21:06 21° 269° (W) 15:25:07 435.225
ITAMSAT 1 21 Aug 15:18:13 15:23:19 58° 70° (ENE) 15:28:25 435.822/435.867
50 SAT 21 Aug 15:25:02 15:27:12 16° 295° (WNW) 15:29:22 437.505
ITUPSAT 1 21 Aug 15:39:50 15:43:58 28° 95° (E) 15:48:05 437.325
AO-85 21 Aug 15:55:01 15:57:17 14° 249° (WSW) 15:59:36 145.980
BEESAT 2 21 Aug 15:57:16 16:00:09 19° 247° (WSW) 16:03:01 435.950
UKube-1 21 Aug 15:58:50 16:02:19 24° 296° (WNW) 16:05:46 .
YUBILEINY 21 Aug 16:11:04 16:19:43 65° 92° (E) 16:28:21 435.215
DOVE 4 21 Aug 16:15:16 16:18:55 19° 62° (ENE) 16:22:29 437.250
MOZHAYETS 4 21 Aug 16:20:06 16:24:41 63° 101° (E) 16:29:16
DX 1 21 Aug 16:23:48 16:24:57 11° 303° (WNW) 16:26:06 434.975-435.025
ISS 21 Aug 16:34:09 16:37:21 51° 214° (SSW) 16:40:31 437.550
nSIGHT-1 21 Aug 16:41:42 16:44:47 41° 216° (SW) 16:47:52 .
CUBESAT XI-V 21 Aug 16:42:16 16:46:06 24° 93° (E) 16:49:54 437.345
BEESAT 21 Aug 16:42:19 16:47:05 74° 287° (WNW) 16:51:50 436.000
AO-7 21 Aug 16:44:15 16:51:48 37° 263° (W) 16:59:24 .
RS-15 21 Aug 16:50:26 17:01:07 32° 7° (N) 17:11:30 29.354- 29.394
ITAMSAT 1 21 Aug 16:59:21 17:03:09 20° 268° (W) 17:06:58 435.822/435.867
XW-2C 21 Aug 17:04:05 17:05:54 13° 62° (ENE) 17:07:44 145.795 - 145.815
XW-2F 21 Aug 17:14:59 17:17:20 16° 64° (ENE) 17:19:43 145.980 - 146.000
ITUPSAT 1 21 Aug 17:17:29 17:21:50 36° 293° (WNW) 17:26:12 437.325
CUTE-I 21 Aug 17:32:52 17:37:34 33° 65° (ENE) 17:42:18 437.470
HO-68 21 Aug 17:34:45 17:39:48 21° 52° (NE) 17:44:52 435.675
KAITUO 1B 21 Aug 17:38:08 17:41:05 23° 67° (ENE) 17:44:04 145.475/437.950
O/OREOS (USA 219) 21 Aug 17:39:02 17:39:58 11° 42° (NE) 17:40:55 437.305
DOVE 4 21 Aug 17:50:50 17:56:06 68° 259° (W) 18:01:14 437.250
CUTE 1.7 + AOD 2 21 Aug 17:55:11 17:56:23 11° 59° (ENE) 17:57:37 437.475
MOZHAYETS 4 21 Aug 17:58:23 18:01:22 17° 299° (WNW) 18:04:21
LilacSat-2 21 Aug 18:02:29 18:06:11 60° 74° (ENE) 18:09:58 437.200
KKS-1 21 Aug 18:02:39 18:07:05 65° 102° (ESE) 18:11:27 437.445
XW-2D 21 Aug 18:05:41 18:09:23 64° 75° (ENE) 18:13:09 145.860 - 145.880
NUDT-PHONESAT 21 Aug 18:08:58 18:12:30 48° 72° (ENE) 18:16:05 437.300
YUBILEINY 21 Aug 18:09:32 18:17:09 32° 295° (WNW) 18:24:49 435.215
XW-2B 21 Aug 18:16:43 18:20:28 83° 77° (ENE) 18:24:16 145.730 - 145.750
CUBESAT XI-V 21 Aug 18:19:10 18:23:36 41° 291° (WNW) 18:28:01 437.345
BEESAT 21 Aug 18:22:49 18:24:00 11° 305° (NW) 18:25:13 436.000
XW-2C 21 Aug 18:35:57 18:39:37 56° 259° (W) 18:43:23 145.795 - 145.815
STARS 21 Aug 18:38:57 18:43:19 65° 103° (ESE) 18:47:37 437.465
SEEDS 21 Aug 18:39:19 18:42:21 20° 64° (ENE) 18:45:25 437.485
XW-2F 21 Aug 18:47:34 18:51:08 43° 261° (W) 18:54:46 145.980 - 146.000
XW-2A 21 Aug 18:58:53 19:01:23 20° 67° (ENE) 19:03:54 145.665 - 145.685
RS-15 21 Aug 19:05:10 19:17:08 54° 39° (NE) 19:28:27 29.354- 29.394
KAITUO 1B 21 Aug 19:11:43 19:14:57 28° 264° (W) 19:18:15 145.475/437.950
CUTE-I 21 Aug 19:12:32 19:17:31 39° 263° (W) 19:22:32 437.470
STRAND 1 21 Aug 19:13:03 19:15:21 13° 88° (E) 19:17:38 437.568
O/OREOS (USA 219) 21 Aug 19:15:50 19:20:21 63° 63° (ENE) 19:24:52 437.305
HO-68 21 Aug 19:19:27 19:26:37 88° 73° (ENE) 19:33:49 435.675
AAUSAT CUBESAT 2 21 Aug 19:21:48 19:25:13 25° 66° (ENE) 19:28:38 437.432
CUTE 1.7 + AOD 2 21 Aug 19:27:18 19:31:32 89° 257° (WSW) 19:35:49 437.475
UWE-3 21 Aug 19:38:37 19:42:29 38° 70° (ENE) 19:46:20 435.000/436.395/437.385
LilacSat-2 21 Aug 19:39:41 19:40:52 11° 271° (W) 19:42:05 437.200
KKS-1 21 Aug 19:40:29 19:43:08 16° 300° (WNW) 19:45:46 437.445
XW-2D 21 Aug 19:43:14 19:44:00 10° 272° (W) 19:44:46 145.860 - 145.880
NUDT-PHONESAT 21 Aug 19:44:55 19:46:41 13° 270° (W) 19:48:27 437.300
Oscar 11 21 Aug 19:45:58 19:49:02 19° 63° (ENE) 19:52:06 .
CUBEBUG 2 21 Aug 19:47:21 19:51:36 81° 77° (ENE) 19:55:48 437.445
SEEDS 21 Aug 20:13:43 20:17:44 44° 262° (W) 20:21:49 437.485
ZACube-1 21 Aug 20:16:08 20:20:10 53° 72° (ENE) 20:24:12 437.345
STARS 21 Aug 20:16:37 20:19:08 15° 300° (WNW) 20:21:39 437.465
DELFI C3 21 Aug 20:21:58 20:23:02 11° 59° (ENE) 20:24:05 145.870
XW-2A 21 Aug 20:31:12 20:34:00 25° 264° (W) 20:36:48 145.665 - 145.685
AO-73 21 Aug 20:36:40 20:40:47 79° 77° (ENE) 20:44:57 145.935
EO-88 21 Aug 20:49:26 20:50:38 11° 61° (ENE) 20:51:50 145.990 - 145.960
STRAND 1 21 Aug 20:50:05 20:55:12 86° 286° (WNW) 21:00:18 437.568
O/OREOS (USA 219) 21 Aug 20:56:35 20:59:14 15° 261° (W) 21:01:53 437.305
AAUSAT CUBESAT 2 21 Aug 20:56:46 21:00:31 33° 264° (W) 21:04:20 437.432
HO-68 21 Aug 21:10:28 21:15:14 19° 271° (W) 21:20:03 435.675
UWE-3 21 Aug 21:15:56 21:19:05 20° 267° (W) 21:22:14 435.000/436.395/437.385
RS-15 21 Aug 21:18:13 21:29:53 59° 246° (WSW) 21:40:56 29.354- 29.394
Oscar 11 21 Aug 21:20:40 21:24:50 47° 261° (W) 21:29:02 .
Max Valier Satellite 21 Aug 21:28:31 21:31:55 37° 71° (ENE) 21:35:20 145.860
TIGRISAT 21 Aug 21:47:00 21:47:55 11° 88° (E) 21:48:50 435.000
PCSat 21 Aug 21:48:13 21:51:26 16° 104° (ESE) 21:54:40 145.827
DELFI C3 21 Aug 21:53:09 21:57:10 82° 259° (W) 22:01:12 145.870
ZACube-1 21 Aug 21:54:25 21:56:47 15° 270° (W) 21:59:10 437.345
LO-87 21 Aug 22:15:08 22:17:17 15° 64° (ENE) 22:19:25 145.935 - 145.965
EO-88 21 Aug 22:20:12 22:23:48 63° 259° (W) 22:27:26 145.990 - 145.960
ESTCUBE 1 21 Aug 22:31:03 22:34:21 20° 63° (ENE) 22:37:40 437.505/2401.250
STRAND 1 21 Aug 22:31:07 22:33:37 14° 304° (NW) 22:36:06 437.568
FO-29 21 Aug 22:31:39 22:37:19 71° 102° (ESE) 22:42:31 435.910
PRISM 21 Aug 22:33:53 22:37:13 23° 94° (E) 22:40:31 437.425
UNISAT 6 21 Aug 22:46:05 22:50:16 48° 100° (E) 22:54:31 437.425
SO-50 21 Aug 23:00:33 23:04:36 33° 117° (ESE) 23:08:39 436.795
Max Valier Satellite 21 Aug 23:03:35 23:05:55 16° 268° (W) 23:08:15 145.860
TIGRISAT 21 Aug 23:20:50 23:25:09 81° 286° (WNW) 23:29:31 435.000
PCSat 21 Aug 23:28:41 23:34:07 82° 303° (WNW) 23:39:36 145.827
RS-15 21 Aug 23:34:59 23:39:21 13° 269° (W) 23:43:39 29.354- 29.394
LO-87 21 Aug 23:46:58 23:50:23 41° 261° (W) 23:53:48 145.935 - 145.965
DUCHIFAT 1 21 Aug 23:56:15 23:57:44 12° 89° (E) 23:59:14 145.980
AIST 2D 22 Aug 00:04:51 00:08:16 42° 99° (E) 00:11:40 435.315
ESTCUBE 1 22 Aug 00:06:26 00:10:48 49° 260° (W) 00:15:14 437.505/2401.250
SPROUT 22 Aug 00:08:23 00:12:28 47° 71° (ENE) 00:16:34 437.525
VELOX 1 22 Aug 00:08:37 00:12:47 40° 69° (ENE) 00:16:58 145.980
PRISM 22 Aug 00:08:49 00:12:33 33° 292° (WNW) 00:16:15 437.425
DX 1 22 Aug 00:09:04 00:11:22 14° 59° (ENE) 00:13:42 434.975-435.025
FO-29 22 Aug 00:17:55 00:21:45 19° 304° (NW) 00:25:22 435.910
UNISAT 6 22 Aug 00:23:37 00:26:40 19° 297° (WNW) 00:29:45 437.425
50 SAT 22 Aug 00:25:20 00:27:50 19° 66° (ENE) 00:30:20 437.505
NANOSAT C BR1 22 Aug 00:39:55 00:43:51 38° 98° (E) 00:47:46 145.865
SO-50 22 Aug 00:40:51 00:45:01 36° 316° (NW) 00:49:12 436.795
POLYITAN 1 22 Aug 00:45:32 00:49:38 49° 99° (E) 00:53:43 437.675
M-CUBED/EXP-1 PRIME 22 Aug 00:56:54 01:01:20 80° 108° (ESE) 01:05:24 437.505
QB50P2 22 Aug 01:00:41 01:04:56 79° 104° (ESE) 01:09:08 145.880/145.840
EO-79 22 Aug 01:01:00 01:05:12 72° 102° (ESE) 01:09:24 145.935-145.965
PCSat 22 Aug 01:14:29 01:18:22 20° 324° (NW) 01:22:16 145.827
NO-84 22 Aug 01:18:30 01:21:02 27° 136° (SE) 01:23:31 435.350 FM
UKube-1 22 Aug 01:18:56 01:23:02 43° 70° (ENE) 01:27:10 .
BUGSAT 1 22 Aug 01:25:42 01:29:14 29° 96° (E) 01:32:46 437.445
DUCHIFAT 1 22 Aug 01:29:42 01:33:53 70° 286° (WNW) 01:38:02 145.980
AIST 2D 22 Aug 01:39:04 01:41:08 15° 296° (WNW) 01:43:11 435.315
DX 1 22 Aug 01:42:38 01:47:00 72° 257° (WSW) 01:51:24 434.975-435.025
SPROUT 22 Aug 01:45:43 01:48:36 18° 268° (W) 01:51:31 437.525
VELOX 1 22 Aug 01:45:52 01:49:23 22° 267° (W) 01:52:54 145.980
Gurwin Techsat 1B 22 Aug 01:50:09 01:53:46 18° 90° (E) 01:57:22 435.225
MOZHAYETS 4 22 Aug 01:51:13 01:52:17 11° 56° (ENE) 01:53:21
50 SAT 22 Aug 01:57:20 02:00:20 28° 263° (W) 02:03:20 437.505
Oscar 19 22 Aug 02:06:24 02:11:13 37° 97° (E) 02:16:01 437.125/150
BEESAT 22 Aug 02:14:36 02:18:17 23° 62° (ENE) 02:21:58 436.000
NANOSAT C BR1 22 Aug 02:16:06 02:19:21 22° 295° (WNW) 02:22:34 145.865
YUBILEINY 22 Aug 02:18:13 02:26:08 37° 68° (ENE) 02:34:00 435.215
POLYITAN 1 22 Aug 02:22:12 02:25:05 18° 297° (WNW) 02:27:57 437.675
SO-50 22 Aug 02:25:39 02:26:47 11° 339° (NNW) 02:27:55 436.795
M-CUBED/EXP-1 PRIME 22 Aug 02:32:44 02:35:03 14° 308° (NW) 02:37:19 437.505
QB50P2 22 Aug 02:38:25 02:40:06 12° 301° (WNW) 02:41:48 145.880/145.840
EO-79 22 Aug 02:38:27 02:40:25 13° 300° (WNW) 02:42:22 145.935-145.965
ITUPSAT 1 22 Aug 02:48:44 02:53:15 44° 69° (ENE) 02:57:45 437.325
AO-7 22 Aug 02:51:53 02:55:37 13° 85° (E) 02:59:20 .
NO-84 22 Aug 02:55:42 02:58:21 33° 334° (NNW) 03:00:59 435.350 FM
UKube-1 22 Aug 02:56:04 02:59:15 20° 267° (W) 03:02:28 .
BUGSAT 1 22 Aug 03:01:11 03:04:31 26° 293° (WNW) 03:07:52 437.445
MOZHAYETS 4 22 Aug 03:24:06 03:28:39 79° 75° (ENE) 03:33:14
Gurwin Techsat 1B 22 Aug 03:28:54 03:34:12 66° 288° (WNW) 03:39:27 435.225
ITAMSAT 1 22 Aug 03:29:39 03:32:51 16° 90° (E) 03:36:01 435.822/435.867
KKS-1 22 Aug 03:30:15 03:31:22 11° 56° (ENE) 03:32:31 437.445
Oscar 19 22 Aug 03:45:51 03:50:27 33° 295° (WNW) 03:55:03 437.125/150
CUBESAT XI-V 22 Aug 03:47:44 03:51:49 31° 67° (ENE) 03:55:58 437.345
BEESAT 22 Aug 03:51:11 03:55:46 47° 260° (W) 04:00:22 436.000
STARS 22 Aug 04:05:36 04:06:21 10° 56° (NE) 04:07:04 437.465
YUBILEINY 22 Aug 04:14:54 04:23:19 56° 270° (W) 04:31:42 435.215
ITUPSAT 1 22 Aug 04:27:30 04:31:15 23° 266° (W) 04:35:02 437.325
AO-85 22 Aug 04:33:25 04:34:17 11° 109° (ESE) 04:35:10 145.980
NO-84 22 Aug 04:34:40 04:36:23 15° 355° (N) 04:38:08 435.350 FM
AO-7 22 Aug 04:41:39 04:49:59 67° 105° (ESE) 04:58:13 .
KKS-1 22 Aug 05:02:42 05:07:10 81° 73° (ENE) 05:11:39 437.445
MOZHAYETS 4 22 Aug 05:04:41 05:06:23 12° 272° (W) 05:08:05
ITAMSAT 1 22 Aug 05:07:40 05:12:51 71° 287° (WNW) 05:17:59 435.822/435.867
Gurwin Techsat 1B 22 Aug 05:11:33 05:13:09 11° 307° (NW) 05:14:44 435.225
CUBESAT XI-V 22 Aug 05:24:59 05:29:09 32° 265° (W) 05:33:21 437.345
BEESAT 3 22 Aug 05:32:17 05:36:16 73° 124° (SE) 05:40:19 437.485
STARS 22 Aug 05:37:31 05:41:55 80° 75° (ENE) 05:46:20 437.465
DOVE 4 22 Aug 05:48:06 05:51:56 26° 93° (E) 05:55:36 437.250
SO-50 22 Aug 05:49:22 05:52:01 15° 29° (NNE) 05:54:42 436.795
BEESAT 2 22 Aug 05:49:27 05:53:09 37° 118° (ESE) 05:56:55 435.950
XW-2C 22 Aug 06:07:20 06:09:06 13° 90° (E) 06:10:52 145.795 - 145.815
AO-85 22 Aug 06:10:07 06:14:02 78° 307° (NW) 06:17:59 145.980
NO-84 22 Aug 06:12:23 06:14:37 20° 17° (NNE) 06:16:55 435.350 FM
YUBILEINY 22 Aug 06:16:53 06:17:59 10° 292° (WNW) 06:19:06 435.215
XW-2F 22 Aug 06:17:48 06:20:12 16° 91° (E) 06:22:36 145.980 - 146.000
STRAND 1 22 Aug 06:30:34 06:34:43 26° 63° (ENE) 06:38:53 437.568
PCSat 22 Aug 06:31:10 06:35:49 28° 42° (NE) 06:40:26 145.827
AO-7 22 Aug 06:35:02 06:42:14 34° 306° (NW) 06:49:24 .
KAITUO 1B 22 Aug 06:40:06 06:43:08 22° 94° (E) 06:46:09 145.475/437.950
KKS-1 22 Aug 06:42:55 06:44:18 11° 272° (W) 06:45:40 437.445
HO-68 22 Aug 06:46:37 06:50:09 14° 86° (E) 06:53:40 435.675
ITAMSAT 1 22 Aug 06:49:34 06:51:24 12° 307° (NW) 06:53:13 435.822/435.867
LilacSat-2 22 Aug 07:07:05 07:10:57 65° 101° (ESE) 07:14:49 437.200
FO-29 22 Aug 07:07:11 07:07:58 10° 48° (NE) 07:08:44 435.910
XW-2D 22 Aug 07:09:30 07:13:20 67° 100° (E) 07:17:11 145.860 - 145.880
NUDT-PHONESAT 22 Aug 07:10:15 07:13:53 47° 99° (E) 07:17:31 437.300
CUTE 1.7 + AOD 2 22 Aug 07:11:01 07:13:14 14° 89° (E) 07:15:27 437.475
BEESAT 3 22 Aug 07:11:27 07:14:18 18° 324° (NW) 07:17:10 437.485
STARS 22 Aug 07:17:28 07:18:49 11° 272° (W) 07:20:08 437.465
XW-2B 22 Aug 07:20:35 07:24:28 87° 101° (ESE) 07:28:19 145.730 - 145.750
DOVE 4 22 Aug 07:25:35 07:29:41 33° 293° (WNW) 07:33:35 437.250
CUTE-I 22 Aug 07:26:22 07:31:42 69° 103° (ESE) 07:36:59 437.470
BEESAT 2 22 Aug 07:27:28 07:30:58 28° 317° (NW) 07:34:32 435.950
SO-50 22 Aug 07:28:50 07:33:22 63° 51° (NE) 07:37:55 436.795
CUBEBUG 2 22 Aug 07:36:42 07:38:49 13° 90° (E) 07:40:57 437.445
XW-2C 22 Aug 07:39:51 07:43:37 54° 286° (WNW) 07:47:23 145.795 - 145.815
NO-84 22 Aug 07:49:19 07:52:19 88° 36° (NE) 07:55:30 435.350 FM
XW-2A 22 Aug 07:50:36 07:52:39 15° 92° (E) 07:54:42 145.665 - 145.685
XW-2F 22 Aug 07:50:54 07:54:33 43° 288° (WNW) 07:58:11 145.980 - 146.000
AO-85 22 Aug 07:53:02 07:55:07 14° 328° (NNW) 07:57:13 145.980
SEEDS 22 Aug 07:55:01 07:58:34 25° 94° (E) 08:02:05 437.485
STRAND 1 22 Aug 08:08:43 08:13:38 47° 261° (W) 08:18:34 437.568
KAITUO 1B 22 Aug 08:13:48 08:17:09 30° 291° (WNW) 08:20:29 145.475/437.950
PCSat 22 Aug 08:14:15 08:19:35 60° 243° (WSW) 08:24:54 145.827
AO-73 22 Aug 08:23:20 08:25:17 13° 89° (E) 08:27:15 145.935
HO-68 22 Aug 08:31:52 08:39:04 75° 105° (ESE) 08:46:13 435.675
AAUSAT CUBESAT 2 22 Aug 08:35:54 08:39:40 31° 96° (E) 08:43:22 437.432
LilacSat-2 22 Aug 08:43:04 08:44:43 12° 298° (WNW) 08:46:22 437.200
FO-29 22 Aug 08:44:38 08:51:38 47° 67° (ENE) 08:57:58 435.910
CUTE 1.7 + AOD 2 22 Aug 08:45:13 08:49:29 62° 286° (WNW) 08:53:43 437.475
NUDT-PHONESAT 22 Aug 08:45:13 08:47:24 15° 297° (WNW) 08:49:35 437.300
XW-2D 22 Aug 08:45:31 08:47:00 12° 299° (WNW) 08:48:28 145.860 - 145.880
TIGRISAT 22 Aug 08:47:39 08:49:51 14° 60° (ENE) 08:52:02 435.000
UWE-3 22 Aug 09:01:06 09:05:19 61° 101° (ESE) 09:09:37 435.000/436.395/437.385
Oscar 11 22 Aug 09:05:24 09:09:04 26° 94° (E) 09:12:44 .
CUTE-I 22 Aug 09:07:30 09:11:13 20° 301° (WNW) 09:14:54 437.470
SO-50 22 Aug 09:10:16 09:13:23 18° 248° (WSW) 09:16:31 436.795
CUBEBUG 2 22 Aug 09:11:40 09:15:49 61° 287° (WNW) 09:20:04 437.445
Tancredo 1 22 Aug 09:17:08 09:19:50 36° 144° (SE) 09:22:34 437.200
ISS 22 Aug 09:17:19 09:18:41 12° 133° (SE) 09:20:04 437.550
XW-2A 22 Aug 09:22:23 09:25:31 34° 289° (WNW) 09:28:39 145.665 - 145.685
nSIGHT-1 22 Aug 09:23:08 09:25:01 14° 134° (SE) 09:26:53 .
PRISM 22 Aug 09:25:21 09:28:44 24° 65° (ENE) 09:32:08 437.425
NO-84 22 Aug 09:28:21 09:29:19 11° 231° (SW) 09:30:19 435.350 FM
DELFI C3 22 Aug 09:30:01 09:30:55 11° 88° (E) 09:31:48 145.870
SEEDS 22 Aug 09:30:27 09:34:17 33° 291° (WNW) 09:38:06 437.485
O/OREOS (USA 219) 22 Aug 09:30:41 09:34:55 43° 108° (ESE) 09:39:10 437.305
RS-15 22 Aug 09:35:46 09:43:47 21° 97° (E) 09:51:50 29.354- 29.394
ZACube-1 22 Aug 09:37:22 09:41:41 83° 105° (ESE) 09:46:04 437.345
UNISAT 6 22 Aug 09:47:08 09:51:21 56° 73° (ENE) 09:55:34 437.425
AO-73 22 Aug 09:57:41 10:01:57 68° 286° (WNW) 10:06:17 145.935
M-CUBED/EXP-1 PRIME 22 Aug 10:11:07 10:14:30 21° 56° (NE) 10:17:55 437.505
AAUSAT CUBESAT 2 22 Aug 10:11:30 10:15:01 26° 293° (WNW) 10:18:28 437.432
HO-68 22 Aug 10:20:29 10:26:09 26° 305° (NW) 10:31:49 435.675
TIGRISAT 22 Aug 10:21:44 10:26:02 69° 259° (WSW) 10:30:18 435.000
Max Valier Satellite 22 Aug 10:29:20 10:32:48 36° 98° (E) 10:36:15 145.860
FO-29 22 Aug 10:29:46 10:36:42 40° 263° (W) 10:43:03 435.910
UWE-3 22 Aug 10:38:52 10:41:20 15° 298° (WNW) 10:43:50 435.000/436.395/437.385
Oscar 11 22 Aug 10:41:19 10:45:15 33° 291° (WNW) 10:49:09 .
AIST 2D 22 Aug 10:41:49 10:44:35 23° 68° (ENE) 10:47:24 435.315
DUCHIFAT 1 22 Aug 10:50:28 10:52:28 13° 60° (ENE) 10:54:27 145.980
ISS 22 Aug 10:51:24 10:54:40 75° 150° (SSE) 10:57:57 437.550
Tancredo 1 22 Aug 10:52:13 10:55:00 40° 342° (NNW) 10:57:48 437.200
nSIGHT-1 22 Aug 10:57:42 11:00:58 87° 151° (SSE) 11:04:14 .
PRISM 22 Aug 11:00:04 11:03:51 33° 263° (W) 11:07:40 437.425
DELFI C3 22 Aug 11:02:10 11:06:09 70° 285° (WNW) 11:10:05 145.870
O/OREOS (USA 219) 22 Aug 11:10:54 11:14:31 24° 307° (NW) 11:18:10 437.305
LO-87 22 Aug 11:12:43 11:14:11 12° 90° (E) 11:15:38 145.935 - 145.965
ZACube-1 22 Aug 11:15:44 11:17:22 12° 300° (WNW) 11:18:59 437.345
EO-88 22 Aug 11:19:47 11:23:27 69° 285° (WNW) 11:27:06 145.990 - 145.960
UNISAT 6 22 Aug 11:25:56 11:28:26 15° 270° (W) 11:30:55 437.425
NANOSAT C BR1 22 Aug 11:34:06 11:38:00 39° 70° (ENE) 11:41:54 145.865
POLYITAN 1 22 Aug 11:40:10 11:44:13 50° 71° (ENE) 11:48:17 437.675
RS-15 22 Aug 11:41:56 11:54:07 75° 120° (ESE) 12:06:24 29.354- 29.394
M-CUBED/EXP-1 PRIME 22 Aug 11:43:58 11:48:27 59° 254° (WSW) 11:53:06 437.505
Oscar 19 22 Aug 11:50:40 11:52:17 11° 53° (NE) 11:53:54 437.125/150
QB50P2 22 Aug 11:55:14 11:59:27 80° 76° (ENE) 12:03:40 145.880/145.840
EO-79 22 Aug 11:55:22 11:59:32 73° 75° (ENE) 12:03:45 145.935-145.965
ESTCUBE 1 22 Aug 11:56:23 12:00:20 28° 95° (E) 12:04:15 437.505/2401.250
Max Valier Satellite 22 Aug 12:03:48 12:06:23 18° 295° (WNW) 12:08:57 145.860
BEESAT 3 22 Aug 12:10:04 12:12:40 16° 35° (NE) 12:15:15 437.485
AIST 2D 22 Aug 12:14:49 12:17:42 24° 265° (W) 12:20:38 435.315
BUGSAT 1 22 Aug 12:17:39 12:21:11 29° 68° (ENE) 12:24:42 437.445
DUCHIFAT 1 22 Aug 12:23:25 12:27:35 70° 258° (WSW) 12:31:45 145.980
Tancredo 1 22 Aug 12:28:07 12:30:38 26° 2° (N) 12:33:09 437.200
BEESAT 2 22 Aug 12:28:17 12:29:45 12° 28° (NNE) 12:31:15 435.950
ISS 22 Aug 12:28:19 12:31:22 34° 349° (N) 12:34:25 437.550
nSIGHT-1 22 Aug 12:34:37 12:37:37 32° 351° (N) 12:40:36 .
LO-87 22 Aug 12:44:28 12:47:53 47° 287° (WNW) 12:51:17 145.935 - 145.965
AO-85 22 Aug 12:58:17 13:01:55 27° 42° (NE) 13:05:44 145.980
NANOSAT C BR1 22 Aug 13:10:41 13:13:51 21° 267° (W) 13:17:01 145.865
Gurwin Techsat 1B 22 Aug 13:13:14 13:18:06 38° 66° (ENE) 13:22:58 435.225
50 SAT 22 Aug 13:17:13 13:18:44 12° 91° (E) 13:20:14 437.505
POLYITAN 1 22 Aug 13:17:38 13:20:17 16° 269° (W) 13:22:57 437.675
Oscar 19 22 Aug 13:25:32 13:30:39 69° 73° (ENE) 13:35:49 437.125/150
SPROUT 22 Aug 13:26:54 13:31:08 64° 101° (ESE) 13:35:21 437.525
DX 1 22 Aug 13:29:20 13:32:02 16° 91° (E) 13:34:43 434.975-435.025
VELOX 1 22 Aug 13:31:59 13:36:21 56° 101° (E) 13:40:40 145.980
ESTCUBE 1 22 Aug 13:33:04 13:37:08 33° 293° (WNW) 13:41:11 437.505/2401.250
EO-79 22 Aug 13:34:30 13:35:48 11° 272° (W) 13:37:07 145.935-145.965
QB50P2 22 Aug 13:35:17 13:35:48 10° 272° (W) 13:36:18 145.880/145.840
BEESAT 3 22 Aug 13:46:45 13:50:48 85° 235° (SW) 13:54:44 437.485
AO-7 22 Aug 13:52:35 13:59:28 30° 52° (NE) 14:06:21 .
BUGSAT 1 22 Aug 13:53:04 13:56:31 26° 265° (W) 13:59:58 437.445
Tancredo 1 22 Aug 14:03:22 14:06:13 51° 22° (NNE) 14:09:03 437.200
BEESAT 2 22 Aug 14:04:26 14:08:26 52° 49° (NE) 14:12:22 435.950
ISS 22 Aug 14:05:21 14:08:23 33° 9° (N) 14:11:23 437.550
